,,,PA_Meas_PMT16A,,PR_Meas_QMR101_102,,RH_Meas_QMH101,,SR_Meas_QMS101,,TA_Meas_QMH101,,GenWind,,GenWind,
date,time,status,PA,status,PR,status,RH,status,SR,status,TA,status,DirAvg,status,SpdAvg,
2014-02-12, 00:00:04,VALID,1008.14,VALID,0,VALID,86.2396,VALID,0,VALID,25.4287,VALID,327,VALID,0.263672,
2014-02-12, 00:01:04,VALID,1008.11,VALID,0,VALID,86.232,VALID,0,VALID,25.4072,VALID,326,VALID,0.248437,
2014-02-12, 00:02:04,VALID,1008.12,VALID,0,VALID,86.354,VALID,0,VALID,25.3877,VALID,326,VALID,0.165234,
2014-02-12, 00:03:04,VALID,1008.08,VALID,0,VALID,86.2549,VALID,0,VALID,25.4092,VALID,329,VALID,0.985156,
2014-02-12, 00:04:04,VALID,1008.09,VALID,0,VALID,86.1481,VALID,0,VALID,25.3877,VALID,330,VALID,0.542188,
2014-02-12, 00:05:04,VALID,1008.03,VALID,0,VALID,86.1253,VALID,0,VALID,25.4092,VALID,329,VALID,0.507031,
2014-02-12, 00:06:04,VALID,1008.01,VALID,0,VALID,86.1329,VALID,0,VALID,25.3897,VALID,330,VALID,0.398828,
2014-02-12, 00:07:04,VALID,1008.02,VALID,0,VALID,86.1558,VALID,0,VALID,25.3702,VALID,330,VALID,0.149609,
2014-02-12, 00:08:04,VALID,1008.01,VALID,0,VALID,86.2701,VALID,0,VALID,25.3507,VALID,334,VALID,0.858203,
2014-02-12, 00:09:04,VALID,1007.97,VALID,0,VALID,86.3159,VALID,0,VALID,25.3507,VALID,358,VALID,0.682031,
2014-02-12, 00:10:04,VALID,1007.95,VALID,0,VALID,86.293,VALID,0,VALID,25.3312,VALID,343,VALID,0.901172,
2014-02-12, 00:11:04,VALID,1007.93,VALID,0,VALID,86.3235,VALID,0,VALID,25.3312,VALID,337,VALID,0.472266,
2014-02-12, 00:12:04,VALID,1007.95,VALID,0,VALID,86.3769,VALID,0,VALID,25.3312,VALID,338,VALID,0.330469,
2014-02-12, 00:13:04,VALID,1007.92,VALID,0,VALID,86.4684,VALID,0,VALID,25.3117,VALID,338,VALID,0.522266,
2014-02-12, 00:14:04,VALID,1007.94,VALID,0,VALID,86.476,VALID,0,VALID,25.2922,VALID,339,VALID,0.355078,
2014-02-12, 00:15:04,VALID,1007.88,VALID,0,VALID,86.5599,VALID,0,VALID,25.2727,VALID,339,VALID,0.189063,
2014-02-12, 00:16:04,VALID,1007.86,VALID,0,VALID,86.6591,VALID,0,VALID,25.2532,VALID,339,VALID,0.33125,
2014-02-12, 00:17:04,VALID,1007.89,VALID,0,VALID,86.7353,VALID,0,VALID,25.2318,VALID,339,VALID,0.382422,
2014-02-12, 00:18:04,VALID,1007.84,VALID,0,VALID,86.926,VALID,0,VALID,25.2532,VALID,339,VALID,0.323438,
2014-02-12, 00:19:04,VALID,1007.81,VALID,0,VALID,86.9031,VALID,0,VALID,25.2532,VALID,338,VALID,0.666797,
2014-02-12, 00:20:04,VALID,1007.82,VALID,0,VALID,86.987,VALID,0,VALID,25.2532,VALID,338,VALID,0,
2014-02-12, 00:21:04,VALID,1007.8,VALID,0,VALID,86.9412,VALID,0,VALID,25.2532,VALID,338,VALID,0.158594,
2014-02-12, 00:22:04,VALID,1007.77,VALID,0,VALID,86.926,VALID,0,VALID,25.2337,VALID,338,VALID,0.183984,
2014-02-12, 00:23:04,VALID,1007.76,VALID,0,VALID,86.8802,VALID,0,VALID,25.2318,VALID,289,VALID,0.408594,
2014-02-12, 00:24:04,VALID,1007.75,VALID,0,VALID,86.7506,VALID,0,VALID,25.2532,VALID,312,VALID,0.600391,
2014-02-12, 00:25:04,VALID,1007.73,VALID,0,VALID,86.7201,VALID,0,VALID,25.2337,VALID,338,VALID,0.665234,
2014-02-12, 00:26:04,VALID,1007.73,VALID,0,VALID,86.7506,VALID,0,VALID,25.2513,VALID,331,VALID,0.101953,
2014-02-12, 00:27:04,VALID,1007.69,VALID,0,VALID,86.6438,VALID,0,VALID,25.2318,VALID,331,VALID,0.542578,
2014-02-12, 00:28:04,VALID,1007.68,VALID,0,VALID,86.5599,VALID,0,VALID,25.2532,VALID,331,VALID,0.183594,
2014-02-12, 00:29:04,VALID,1007.71,VALID,0,VALID,86.5218,VALID,0,VALID,25.2532,VALID,331,VALID,0.0890625,
2014-02-12, 00:30:04,VALID,1007.66,VALID,0,VALID,86.5294,VALID,0,VALID,25.2318,VALID,322,VALID,0.820703,
2014-02-12, 00:31:04,VALID,1007.67,VALID,0,VALID,86.4989,VALID,0,VALID,25.2123,VALID,332,VALID,0.626562,
2014-02-12, 00:32:04,VALID,1007.66,VALID,0,VALID,86.5294,VALID,0,VALID,25.2337,VALID,332,VALID,0.01875,
2014-02-12, 00:33:04,VALID,1007.65,VALID,0,VALID,86.6514,VALID,0,VALID,25.2337,VALID,332,VALID,0.119531,
2014-02-12, 00:34:04,VALID,1007.62,VALID,0,VALID,86.6133,VALID,0,VALID,25.2337,VALID,331,VALID,0.370703,
2014-02-12, 00:35:04,VALID,1007.57,VALID,0,VALID,86.354,VALID,0,VALID,25.2142,VALID,330,VALID,0.412109,
2014-02-12, 00:36:04,VALID,1007.57,VALID,0,VALID,86.3312,VALID,0,VALID,25.2123,VALID,330,VALID,0.24375,
2014-02-12, 00:37:04,VALID,1007.54,VALID,0,VALID,86.293,VALID,0,VALID,25.2318,VALID,330,VALID,0.09375,
2014-02-12, 00:38:04,VALID,1007.51,VALID,0,VALID,86.2396,VALID,0,VALID,25.2337,VALID,334,VALID,0.733984,
2014-02-12, 00:39:04,VALID,1007.51,VALID,0,VALID,86.2091,VALID,0,VALID,25.2337,VALID,345,VALID,0.998438,
2014-02-12, 00:40:04,VALID,1007.49,VALID,0,VALID,86.1786,VALID,0,VALID,25.2532,VALID,345,VALID,0.358984,
2014-02-12, 00:41:04,VALID,1007.47,VALID,0,VALID,86.0566,VALID,0,VALID,25.2532,VALID,325,VALID,0.600391,
2014-02-12, 00:42:04,VALID,1007.47,VALID,0,VALID,85.9575,VALID,0,VALID,25.2532,VALID,302,VALID,0.584375,
2014-02-12, 00:43:04,VALID,1007.47,VALID,0,VALID,85.8431,VALID,0,VALID,25.2318,VALID,354,VALID,0.450781,
2014-02-12, 00:44:04,VALID,1007.47,VALID,0,VALID,85.927,VALID,0.112112,VALID,25.2532,VALID,354,VALID,0.553125,
2014-02-12, 00:45:04,VALID,1007.49,VALID,0,VALID,85.9575,VALID,0,VALID,25.2337,VALID,345,VALID,0.455469,
2014-02-12, 00:46:04,VALID,1007.49,VALID,0,VALID,85.8584,VALID,0,VALID,25.2337,VALID,341,VALID,0.323047,
2014-02-12, 00:47:04,VALID,1007.48,VALID,0,VALID,85.8355,VALID,0,VALID,25.2337,VALID,304,VALID,1.20078,
2014-02-12, 00:48:04,VALID,1007.47,VALID,0,VALID,85.7745,VALID,0,VALID,25.2727,VALID,328,VALID,0.510547,
2014-02-12, 00:49:04,VALID,1007.46,VALID,0,VALID,85.6372,VALID,0,VALID,25.2532,VALID,328,VALID,0.548437,
2014-02-12, 00:50:04,VALID,1007.44,VALID,0,VALID,85.5152,VALID,0,VALID,25.2727,VALID,328,VALID,0.353906,
2014-02-12, 00:51:04,VALID,1007.44,VALID,0,VALID,85.4389,VALID,0,VALID,25.2727,VALID,328,VALID,0.00585938,
2014-02-12, 00:52:04,VALID,1007.43,VALID,0,VALID,85.3932,VALID,0,VALID,25.2513,VALID,328,VALID,0.183203,
2014-02-12, 00:53:04,VALID,1007.42,VALID,0,VALID,85.3703,VALID,0,VALID,25.2708,VALID,328,VALID,0.549219,
2014-02-12, 00:54:04,VALID,1007.42,VALID,0,VALID,85.3856,VALID,0,VALID,25.2727,VALID,328,VALID,0.0761719,
2014-02-12, 00:55:04,VALID,1007.42,VALID,0,VALID,85.3398,VALID,0,VALID,25.2727,VALID,328,VALID,0.103906,
2014-02-12, 00:56:04,VALID,1007.44,VALID,0,VALID,85.3398,VALID,0,VALID,25.2727,VALID,328,VALID,0.0449219,
2014-02-12, 00:57:04,VALID,1007.42,VALID,0,VALID,85.3932,VALID,0,VALID,25.2337,VALID,328,VALID,0,
2014-02-12, 00:58:04,VALID,1007.42,VALID,0,VALID,85.4923,VALID,0,VALID,25.2161,VALID,328,VALID,0,
2014-02-12, 00:59:04,VALID,1007.41,VALID,0,VALID,85.5915,VALID,0,VALID,25.1947,VALID,328,VALID,0,
2014-02-12, 01:00:04,VALID,1007.39,VALID,0,VALID,85.6448,VALID,0,VALID,25.1733,VALID,328,VALID,0,
2014-02-12, 01:01:04,VALID,1007.39,VALID,0,VALID,85.7592,VALID,0,VALID,25.1538,VALID,328,VALID,0,
2014-02-12, 01:02:04,VALID,1007.37,VALID,0,VALID,85.988,VALID,0,VALID,25.1343,VALID,328,VALID,0,
2014-02-12, 01:03:04,VALID,1007.35,VALID,0,VALID,86.0795,VALID,0,VALID,25.1362,VALID,328,VALID,0.142969,
2014-02-12, 01:04:04,VALID,1007.34,VALID,0,VALID,86.171,VALID,0,VALID,25.0759,VALID,328,VALID,0.520703,
2014-02-12, 01:05:04,VALID,1007.33,VALID,0,VALID,86.2091,VALID,0,VALID,25.0778,VALID,328,VALID,0.275781,
2014-02-12, 01:06:04,VALID,1007.33,VALID,0,VALID,86.2778,VALID,0,VALID,25.0369,VALID,328,VALID,0.366797,
2014-02-12, 01:07:04,VALID,1007.32,VALID,0,VALID,86.3388,VALID,0,VALID,25.0369,VALID,328,VALID,0.625391,
2014-02-12, 01:08:04,VALID,1007.34,VALID,0,VALID,86.3388,VALID,0,VALID,25.0583,VALID,328,VALID,0.219141,
2014-02-12, 01:09:04,VALID,1007.32,VALID,0,VALID,86.4684,VALID,0,VALID,25.0388,VALID,328,VALID,0.266016,
2014-02-12, 01:10:04,VALID,1007.31,VALID,0,VALID,86.5981,VALID,0,VALID,25.0193,VALID,329,VALID,0.340625,
2014-02-12, 01:11:04,VALID,1007.28,VALID,0,VALID,86.9488,VALID,0,VALID,24.9998,VALID,329,VALID,0.147656,
2014-02-12, 01:12:04,VALID,1007.28,VALID,0,VALID,87.353,VALID,0,VALID,24.9608,VALID,328,VALID,0,
2014-02-12, 01:13:04,VALID,1007.26,VALID,0,VALID,87.4826,VALID,0,VALID,24.9413,VALID,328,VALID,0,
2014-02-12, 01:14:04,VALID,1007.21,VALID,0,VALID,87.6657,VALID,0,VALID,24.9218,VALID,329,VALID,0,
2014-02-12, 01:15:04,VALID,1007.22,VALID,0,VALID,87.9936,VALID,0,VALID,24.8828,VALID,328,VALID,0,
2014-02-12, 01:16:04,VALID,1007.23,VALID,0,VALID,88.23,VALID,0,VALID,24.8633,VALID,328,VALID,0,
2014-02-12, 01:17:04,VALID,1007.19,VALID,0,VALID,88.5655,VALID,0.112112,VALID,24.842,VALID,328,VALID,0.0863281,
2014-02-12, 01:18:04,VALID,1007.19,VALID,0,VALID,88.8172,VALID,0,VALID,24.8225,VALID,328,VALID,0,
2014-02-12, 01:19:04,VALID,1007.18,VALID,0,VALID,88.9163,VALID,0,VALID,24.803,VALID,328,VALID,0.172656,
2014-02-12, 01:20:04,VALID,1007.18,VALID,0,VALID,88.9163,VALID,0,VALID,24.8049,VALID,329,VALID,0,
2014-02-12, 01:21:04,VALID,1007.15,VALID,0,VALID,89.1756,VALID,0,VALID,24.764,VALID,328,VALID,0,
2014-02-12, 01:22:04,VALID,1007.16,VALID,0,VALID,89.3357,VALID,0.112112,VALID,24.764,VALID,328,VALID,0,
2014-02-12, 01:23:04,VALID,1007.16,VALID,0,VALID,89.6026,VALID,0.112112,VALID,24.7445,VALID,328,VALID,0,
2014-02-12, 01:24:04,VALID,1007.17,VALID,0,VALID,90.2889,VALID,0.112112,VALID,24.7445,VALID,328,VALID,0.138281,
2014-02-12, 01:25:04,VALID,1007.16,VALID,0,VALID,90.5558,VALID,0.112112,VALID,24.725,VALID,328,VALID,0,
2014-02-12, 01:26:04,VALID,1007.14,VALID,0,VALID,90.8914,VALID,0.112112,VALID,24.725,VALID,328,VALID,0,
2014-02-12, 01:27:04,VALID,1007.17,VALID,0,VALID,91.265,VALID,0.112112,VALID,24.686,VALID,329,VALID,0,
2014-02-12, 01:28:04,VALID,1007.16,VALID,0,VALID,91.7759,VALID,0.112112,VALID,24.686,VALID,328,VALID,0.125391,
2014-02-12, 01:29:04,VALID,1007.19,VALID,0,VALID,91.7836,VALID,0,VALID,24.686,VALID,329,VALID,0.00117188,
2014-02-12, 01:30:04,VALID,1007.17,VALID,0,VALID,91.7454,VALID,0.112112,VALID,24.6666,VALID,328,VALID,0,
2014-02-12, 01:31:04,VALID,1007.15,VALID,0,VALID,91.7073,VALID,0.112112,VALID,24.686,VALID,329,VALID,0.00429688,
2014-02-12, 01:32:04,VALID,1007.17,VALID,0,VALID,91.6234,VALID,0,VALID,24.6879,VALID,328,VALID,0,
2014-02-12, 01:33:04,VALID,1007.15,VALID,0,VALID,91.6616,VALID,0,VALID,24.6684,VALID,328,VALID,0,
2014-02-12, 01:34:04,VALID,1007.12,VALID,0,VALID,91.7149,VALID,0,VALID,24.6684,VALID,328,VALID,0.00429688,
2014-02-12, 01:35:04,VALID,1007.08,VALID,0,VALID,91.6158,VALID,0,VALID,24.6684,VALID,328,VALID,0,
2014-02-12, 01:36:04,VALID,1007.08,VALID,0,VALID,91.6234,VALID,0,VALID,24.6684,VALID,328,VALID,0,
2014-02-12, 01:37:04,VALID,1007.06,VALID,0,VALID,91.6158,VALID,0,VALID,24.6684,VALID,328,VALID,0,
2014-02-12, 01:38:04,VALID,1007.04,VALID,0,VALID,91.3947,VALID,0,VALID,24.6489,VALID,328,VALID,0,
2014-02-12, 01:39:04,VALID,1007.03,VALID,0,VALID,91.7073,VALID,0,VALID,24.6489,VALID,328,VALID,0.192578,
2014-02-12, 01:40:04,VALID,1007.06,VALID,0,VALID,91.3718,VALID,0,VALID,24.6684,VALID,329,VALID,0.0386719,
2014-02-12, 01:41:04,VALID,1007.04,VALID,0,VALID,90.6092,VALID,0,VALID,24.6879,VALID,329,VALID,0.333203,
2014-02-12, 01:42:04,VALID,1007.01,VALID,0,VALID,90.5177,VALID,0,VALID,24.6879,VALID,329,VALID,0.0164062,
2014-02-12, 01:43:04,VALID,1007.01,VALID,0,VALID,90.8304,VALID,0,VALID,24.6879,VALID,328,VALID,0.189844,
2014-02-12, 01:44:04,VALID,1007.01,VALID,0,VALID,91.0286,VALID,0,VALID,24.6879,VALID,329,VALID,0,
2014-02-12, 01:45:04,VALID,1006.98,VALID,0,VALID,90.8456,VALID,0,VALID,24.6684,VALID,328,VALID,0.499219,
2014-02-12, 01:46:04,VALID,1007.02,VALID,0,VALID,90.5634,VALID,0,VALID,24.6666,VALID,328,VALID,0.288281,
2014-02-12, 01:47:04,VALID,1006.98,VALID,0,VALID,90.4948,VALID,0,VALID,24.6879,VALID,328,VALID,0.0207031,
2014-02-12, 01:48:04,VALID,1006.97,VALID,0,VALID,90.2889,VALID,0,VALID,24.6879,VALID,328,VALID,0.338281,
2014-02-12, 01:49:04,VALID,1006.98,VALID,0,VALID,90.2203,VALID,0,VALID,24.6879,VALID,328,VALID,0.198047,
2014-02-12, 01:50:04,VALID,1006.96,VALID,0,VALID,90.0525,VALID,0,VALID,24.6879,VALID,328,VALID,0.229297,
2014-02-12, 01:51:04,VALID,1006.96,VALID,0,VALID,89.9381,VALID,0,VALID,24.6684,VALID,328,VALID,0.0683594,
2014-02-12, 01:52:04,VALID,1006.94,VALID,0,VALID,89.7856,VALID,0,VALID,24.6684,VALID,328,VALID,0.289453,
2014-02-12, 01:53:04,VALID,1006.92,VALID,0,VALID,89.9076,VALID,0,VALID,24.6294,VALID,329,VALID,0.285937,
2014-02-12, 01:54:04,VALID,1006.94,VALID,0,VALID,90.2813,VALID,0,VALID,24.6294,VALID,328,VALID,0.226172,
2014-02-12, 01:55:04,VALID,1006.93,VALID,0,VALID,90.6397,VALID,0,VALID,24.5905,VALID,329,VALID,0.00585938,
2014-02-12, 01:56:04,VALID,1006.93,VALID,0,VALID,91.082,VALID,0,VALID,24.571,VALID,329,VALID,0,
2014-02-12, 01:57:04,VALID,1006.89,VALID,0,VALID,91.7836,VALID,0,VALID,24.571,VALID,329,VALID,0,
2014-02-12, 01:58:04,VALID,1006.89,VALID,0,VALID,92.1954,VALID,0,VALID,24.532,VALID,328,VALID,0,
2014-02-12, 01:59:04,VALID,1006.89,VALID,0,VALID,92.508,VALID,0,VALID,24.532,VALID,328,VALID,0,
2014-02-12, 02:00:04,VALID,1006.87,VALID,0,VALID,92.569,VALID,0,VALID,24.4911,VALID,328,VALID,0,
2014-02-12, 02:01:04,VALID,1006.87,VALID,0,VALID,92.6453,VALID,0,VALID,24.493,VALID,328,VALID,0,
2014-02-12, 02:02:04,VALID,1006.87,VALID,0,VALID,92.9427,VALID,0,VALID,24.4735,VALID,328,VALID,0,
2014-02-12, 02:03:04,VALID,1006.85,VALID,0,VALID,93.8349,VALID,0,VALID,24.4735,VALID,329,VALID,0,
2014-02-12, 02:04:04,VALID,1006.85,VALID,0,VALID,94.1704,VALID,0,VALID,24.4327,VALID,328,VALID,0.315625,
2014-02-12, 02:05:04,VALID,1006.82,VALID,0,VALID,94.3229,VALID,0,VALID,24.4345,VALID,328,VALID,0.298438,
2014-02-12, 02:06:04,VALID,1006.83,VALID,0,VALID,94.567,VALID,0,VALID,24.415,VALID,328,VALID,0.300781,
2014-02-12, 02:07:04,VALID,1006.83,VALID,0,VALID,95.2685,VALID,0,VALID,24.3956,VALID,328,VALID,0.252344,
2014-02-12, 02:08:04,VALID,1006.83,VALID,0,VALID,95.7032,VALID,0,VALID,24.3761,VALID,329,VALID,0.23125,
2014-02-12, 02:09:04,VALID,1006.83,VALID,0,VALID,96.115,VALID,0,VALID,24.3761,VALID,328,VALID,0,
2014-02-12, 02:10:04,VALID,1006.84,VALID,0,VALID,96.359,VALID,0,VALID,24.3371,VALID,329,VALID,0,
2014-02-12, 02:11:04,VALID,1006.81,VALID,0,VALID,96.5649,VALID,0,VALID,24.3176,VALID,328,VALID,0,
2014-02-12, 02:12:04,VALID,1006.84,VALID,0,VALID,96.8318,VALID,0,VALID,24.2981,VALID,328,VALID,0,
2014-02-12, 02:13:04,VALID,1006.81,VALID,0,VALID,97.0072,VALID,0,VALID,24.2786,VALID,328,VALID,0,
2014-02-12, 02:14:04,VALID,1006.83,VALID,0,VALID,97.1674,VALID,0,VALID,24.2786,VALID,329,VALID,0,
2014-02-12, 02:15:04,VALID,1006.82,VALID,0,VALID,97.358,VALID,0,VALID,24.2378,VALID,328,VALID,0,
2014-02-12, 02:16:04,VALID,1006.84,VALID,0,VALID,97.5715,VALID,0,VALID,24.2591,VALID,328,VALID,0,
2014-02-12, 02:17:04,VALID,1006.83,VALID,0,VALID,97.7545,VALID,0,VALID,24.2378,VALID,328,VALID,0,
2014-02-12, 02:18:04,VALID,1006.82,VALID,0,VALID,97.9376,VALID,0.112112,VALID,24.2183,VALID,328,VALID,0,
2014-02-12, 02:19:04,VALID,1006.85,VALID,0,VALID,98.0443,VALID,0.112112,VALID,24.2183,VALID,329,VALID,0,
2014-02-12, 02:20:04,VALID,1006.87,VALID,0,VALID,98.1968,VALID,0.112112,VALID,24.2202,VALID,329,VALID,0,
2014-02-12, 02:21:04,VALID,1006.92,VALID,0,VALID,98.4103,VALID,0.112112,VALID,24.1988,VALID,328,VALID,0,
2014-02-12, 02:22:04,VALID,1006.87,VALID,0,VALID,98.7459,VALID,0.112112,VALID,24.158,VALID,328,VALID,0,
2014-02-12, 02:23:04,VALID,1006.9,VALID,0,VALID,99.1272,VALID,0.112112,VALID,24.1793,VALID,329,VALID,0,
2014-02-12, 02:24:04,VALID,1006.89,VALID,0,VALID,99.3712,VALID,0,VALID,24.1793,VALID,328,VALID,0.218359,
2014-02-12, 02:25:04,VALID,1006.91,VALID,0,VALID,99.6838,VALID,0.112112,VALID,24.1599,VALID,328,VALID,0.305078,
2014-02-12, 02:26:04,VALID,1006.92,VALID,0,VALID,99.9279,VALID,0,VALID,24.1599,VALID,329,VALID,0.186328,
2014-02-12, 02:27:04,VALID,1006.93,VALID,0,VALID,100.058,VALID,0.112112,VALID,24.1599,VALID,329,VALID,0.150391,
2014-02-12, 02:28:04,VALID,1006.92,VALID,0,VALID,100.058,VALID,0.112112,VALID,24.1599,VALID,329,VALID,0.0347656,
2014-02-12, 02:29:04,VALID,1006.95,VALID,0,VALID,100.218,VALID,0.112112,VALID,24.1599,VALID,328,VALID,0,
2014-02-12, 02:30:04,VALID,1006.93,VALID,0,VALID,100.446,VALID,0.112112,VALID,24.1385,VALID,328,VALID,0.248437,
2014-02-12, 02:31:04,VALID,1006.93,VALID,0,VALID,100.614,VALID,0.112112,VALID,24.1599,VALID,328,VALID,0.0960938,
2014-02-12, 02:32:04,VALID,1006.94,VALID,0,VALID,100.721,VALID,0,VALID,24.1812,VALID,328,VALID,0.266797,
2014-02-12, 02:33:05,VALID,1006.96,VALID,0,VALID,100.683,VALID,0,VALID,24.1617,VALID,329,VALID,0.264453,
2014-02-12, 02:34:05,VALID,1006.97,VALID,0,VALID,100.744,VALID,0,VALID,24.1617,VALID,328,VALID,0.241406,
2014-02-12, 02:35:05,VALID,1006.94,VALID,0,VALID,100.759,VALID,0,VALID,24.1599,VALID,329,VALID,0.315625,
2014-02-12, 02:36:05,VALID,1006.95,VALID,0,VALID,100.782,VALID,0,VALID,24.1599,VALID,328,VALID,0.0230469,
2014-02-12, 02:37:05,VALID,1006.98,VALID,0,VALID,100.828,VALID,0,VALID,24.1617,VALID,329,VALID,0.124219,
2014-02-12, 02:38:05,VALID,1006.97,VALID,0,VALID,100.866,VALID,0,VALID,24.1617,VALID,328,VALID,0,
2014-02-12, 02:39:05,VALID,1006.96,VALID,0,VALID,100.866,VALID,0,VALID,24.1404,VALID,328,VALID,0,
2014-02-12, 02:40:05,VALID,1006.98,VALID,0,VALID,100.912,VALID,0,VALID,24.1617,VALID,328,VALID,0.06875,
2014-02-12, 02:41:05,VALID,1006.96,VALID,0,VALID,100.95,VALID,0,VALID,24.1617,VALID,328,VALID,0.287891,
2014-02-12, 02:42:05,VALID,1006.98,VALID,0,VALID,101.026,VALID,0,VALID,24.1209,VALID,329,VALID,0.117969,
2014-02-12, 02:43:05,VALID,1006.94,VALID,0,VALID,101.072,VALID,0,VALID,24.1227,VALID,328,VALID,0.195313,
2014-02-12, 02:44:05,VALID,1006.94,VALID,0,VALID,101.24,VALID,0,VALID,24.1227,VALID,328,VALID,0.310156,
2014-02-12, 02:45:05,VALID,1006.91,VALID,0,VALID,101.491,VALID,0,VALID,24.1227,VALID,329,VALID,0.556641,
2014-02-12, 02:46:05,VALID,1006.89,VALID,0,VALID,101.872,VALID,0,VALID,24.1227,VALID,329,VALID,0.125,
2014-02-12, 02:47:05,VALID,1006.9,VALID,0,VALID,102.086,VALID,0,VALID,24.1227,VALID,328,VALID,0,
2014-02-12, 02:48:05,VALID,1006.89,VALID,0,VALID,102.208,VALID,0,VALID,24.1227,VALID,328,VALID,0.291016,
2014-02-12, 02:49:05,VALID,1006.88,VALID,0,VALID,102.315,VALID,0,VALID,24.1014,VALID,328,VALID,0,
2014-02-12, 02:50:05,VALID,1006.86,VALID,0,VALID,102.391,VALID,0,VALID,24.1014,VALID,328,VALID,0,
2014-02-12, 02:51:05,VALID,1006.83,VALID,0,VALID,102.338,VALID,0,VALID,24.1032,VALID,328,VALID,0,
2014-02-12, 02:52:05,VALID,1006.83,VALID,0,VALID,102.368,VALID,0,VALID,24.1032,VALID,328,VALID,0,
2014-02-12, 02:53:05,VALID,1006.84,VALID,0,VALID,102.505,VALID,0,VALID,24.1032,VALID,328,VALID,0,
2014-02-12, 02:54:05,VALID,1006.84,VALID,0,VALID,102.62,VALID,0,VALID,24.1227,VALID,329,VALID,0,
2014-02-12, 02:55:05,VALID,1006.85,VALID,0,VALID,102.765,VALID,0,VALID,24.1032,VALID,328,VALID,0,
2014-02-12, 02:56:05,VALID,1006.85,VALID,0,VALID,102.833,VALID,0,VALID,24.0819,VALID,328,VALID,0,
2014-02-12, 02:57:05,VALID,1006.87,VALID,0,VALID,102.833,VALID,0,VALID,24.1032,VALID,328,VALID,0,
2014-02-12, 02:58:05,VALID,1006.85,VALID,0,VALID,102.826,VALID,0,VALID,24.1032,VALID,328,VALID,0,
2014-02-12, 02:59:05,VALID,1006.88,VALID,0,VALID,102.94,VALID,0,VALID,24.1032,VALID,329,VALID,0.317969,
2014-02-12, 03:00:05,VALID,1006.88,VALID,0,VALID,102.971,VALID,0,VALID,24.1032,VALID,329,VALID,0.402344,
2014-02-12, 03:01:05,VALID,1006.86,VALID,0,VALID,102.879,VALID,0,VALID,24.0624,VALID,328,VALID,0.487891,
2014-02-12, 03:02:05,VALID,1006.84,VALID,0,VALID,103.001,VALID,0,VALID,24.0643,VALID,329,VALID,0.480469,
2014-02-12, 03:03:05,VALID,1006.84,VALID,0,VALID,102.94,VALID,0,VALID,24.0429,VALID,329,VALID,0.269141,
2014-02-12, 03:04:05,VALID,1006.83,VALID,0,VALID,103.077,VALID,0,VALID,24.0643,VALID,329,VALID,0.0832031,
2014-02-12, 03:05:05,VALID,1006.8,VALID,0,VALID,103.176,VALID,0,VALID,24.0448,VALID,328,VALID,0.00585938,
2014-02-12, 03:06:05,VALID,1006.79,VALID,0,VALID,103.321,VALID,0,VALID,24.0448,VALID,329,VALID,0.204688,
2014-02-12, 03:07:05,VALID,1006.79,VALID,0,VALID,103.527,VALID,0,VALID,24.0448,VALID,329,VALID,0.0613281,
2014-02-12, 03:08:05,VALID,1006.78,VALID,0,VALID,103.748,VALID,0,VALID,24.0448,VALID,328,VALID,0.337109,
2014-02-12, 03:09:05,VALID,1006.77,VALID,0,VALID,103.878,VALID,0,VALID,24.0235,VALID,328,VALID,0,
2014-02-12, 03:10:05,VALID,1006.76,VALID,0,VALID,103.893,VALID,0,VALID,24.0058,VALID,328,VALID,0,
2014-02-12, 03:11:05,VALID,1006.76,VALID,0,VALID,103.954,VALID,0,VALID,24.0058,VALID,328,VALID,0,
2014-02-12, 03:12:05,VALID,1006.77,VALID,0,VALID,104,VALID,0,VALID,24.0058,VALID,328,VALID,0,
2014-02-12, 03:13:05,VALID,1006.76,VALID,0,VALID,104,VALID,0,VALID,24.0058,VALID,328,VALID,0,
2014-02-12, 03:14:05,VALID,1006.75,VALID,0,VALID,104,VALID,0,VALID,23.9863,VALID,328,VALID,0,
2014-02-12, 03:15:05,VALID,1006.74,VALID,0,VALID,104,VALID,0,VALID,23.9863,VALID,328,VALID,0.0121094,
2014-02-12, 03:16:05,VALID,1006.75,VALID,0,VALID,104,VALID,0,VALID,23.9668,VALID,328,VALID,0,
2014-02-12, 03:17:05,VALID,1006.78,VALID,0,VALID,104,VALID,0,VALID,23.9473,VALID,329,VALID,0.149219,
2014-02-12, 03:18:05,VALID,1006.79,VALID,0,VALID,104,VALID,0,VALID,23.9473,VALID,328,VALID,0,
2014-02-12, 03:19:05,VALID,1006.79,VALID,0,VALID,104,VALID,0,VALID,23.9473,VALID,328,VALID,0.053125,
2014-02-12, 03:20:05,VALID,1006.8,VALID,0,VALID,104,VALID,0,VALID,23.926,VALID,329,VALID,0,
2014-02-12, 03:21:05,VALID,1006.8,VALID,0,VALID,104,VALID,0,VALID,23.926,VALID,328,VALID,0,
2014-02-12, 03:22:05,VALID,1006.84,VALID,0,VALID,104,VALID,0,VALID,23.9491,VALID,328,VALID,0,
2014-02-12, 03:23:05,VALID,1006.78,VALID,0,VALID,104,VALID,0,VALID,23.9278,VALID,328,VALID,0.148438,
2014-02-12, 03:24:05,VALID,1006.77,VALID,0,VALID,104,VALID,0,VALID,23.9065,VALID,328,VALID,0.121484,
2014-02-12, 03:25:05,VALID,1006.76,VALID,0,VALID,104,VALID,0,VALID,23.8889,VALID,329,VALID,0.398438,
2014-02-12, 03:26:05,VALID,1006.77,VALID,0,VALID,104,VALID,0,VALID,23.8676,VALID,328,VALID,0.277344,
2014-02-12, 03:27:05,VALID,1006.76,VALID,0,VALID,104,VALID,0,VALID,23.8694,VALID,328,VALID,0.385938,
2014-02-12, 03:28:05,VALID,1006.76,VALID,0,VALID,104,VALID,0,VALID,23.8499,VALID,329,VALID,0.309375,
2014-02-12, 03:29:05,VALID,1006.77,VALID,0,VALID,104,VALID,0,VALID,23.8286,VALID,328,VALID,0.162891,
2014-02-12, 03:30:05,VALID,1006.76,VALID,0,VALID,104,VALID,0,VALID,23.8499,VALID,328,VALID,0.352734,
2014-02-12, 03:31:05,VALID,1006.77,VALID,0,VALID,104,VALID,0,VALID,23.8499,VALID,328,VALID,0.241797,
2014-02-12, 03:32:05,VALID,1006.77,VALID,0,VALID,104,VALID,0,VALID,23.8286,VALID,328,VALID,0.608984,
2014-02-12, 03:33:05,VALID,1006.81,VALID,0,VALID,104,VALID,0,VALID,23.8499,VALID,328,VALID,0.0546875,
2014-02-12, 03:34:05,VALID,1006.82,VALID,0,VALID,104,VALID,0,VALID,23.8304,VALID,329,VALID,0.580859,
2014-02-12, 03:35:05,VALID,1006.84,VALID,0,VALID,104,VALID,0,VALID,23.8304,VALID,329,VALID,0.514844,
2014-02-12, 03:36:05,VALID,1006.83,VALID,0,VALID,104,VALID,0,VALID,23.7896,VALID,340,VALID,0.772266,
2014-02-12, 03:37:05,VALID,1006.87,VALID,0,VALID,104,VALID,0,VALID,23.8109,VALID,38,VALID,1.0207,
2014-02-12, 03:38:05,VALID,1006.88,VALID,0,VALID,104,VALID,0,VALID,23.8304,VALID,62,VALID,0.664063,
2014-02-12, 03:39:05,VALID,1006.89,VALID,0,VALID,104,VALID,0,VALID,23.8109,VALID,62,VALID,0.440234,
2014-02-12, 03:40:05,VALID,1006.9,VALID,0,VALID,104,VALID,0,VALID,23.7914,VALID,62,VALID,0.615625,
2014-02-12, 03:41:05,VALID,1006.92,VALID,0,VALID,104,VALID,0,VALID,23.772,VALID,62,VALID,0.679688,
2014-02-12, 03:42:05,VALID,1006.93,VALID,0,VALID,104,VALID,0,VALID,23.7701,VALID,62,VALID,0.885156,
2014-02-12, 03:43:05,VALID,1006.94,VALID,0,VALID,104,VALID,0,VALID,23.7914,VALID,62,VALID,0.675391,
2014-02-12, 03:44:05,VALID,1006.94,VALID,0,VALID,104,VALID,0,VALID,23.7914,VALID,62,VALID,0.467187,
2014-02-12, 03:45:05,VALID,1006.91,VALID,0,VALID,104,VALID,0,VALID,23.8109,VALID,62,VALID,0.839063,
2014-02-12, 03:46:05,VALID,1006.91,VALID,0,VALID,104,VALID,0,VALID,23.8304,VALID,62,VALID,0.815234,
2014-02-12, 03:47:05,VALID,1006.9,VALID,0,VALID,104,VALID,0,VALID,23.8499,VALID,62,VALID,0.653516,
2014-02-12, 03:48:05,VALID,1006.89,VALID,0,VALID,104,VALID,0,VALID,23.8907,VALID,93,VALID,0.657812,
2014-02-12, 03:49:05,VALID,1006.89,VALID,0,VALID,104,VALID,0,VALID,23.8694,VALID,100,VALID,0.725781,